Race Results for
Fontana NMBS
Fontana, CA
(Event Information)
Cross Country on 05/05/2007

Note: Ranking points are NOT upgrade points. An explanation of ranking points can be found here.


Men - Cat 1/2/3 - Senior

 Place Points NameCity, StateTime USAC #BibTeam
1 Alexis Seletzky   Los Angeles, CA1:49:28.55 194792  406 CYNERGY
1 JENNIFER TRIBE-WILSON   2:05:16.34  473 
2 Todd Stephenson   Aliso Viejo, CA1:50:33.14 164458  971 SHO-AIRROC
3 MATT CHANEY   1:51:56.31  459 CONTENT WO
4 Colt McElwaine   Canton, MA1:52:50.02 205236  231 
5 Bert Blanchette   Long Beach, CA1:54:22.62 3886  945 BACKBONE R
6 Trevor Walton   Redlands, CA1:56:29.12 152585  993 PASS PT
7 Michael Wiley   Oceanside, CA2:14:51.98 38235  973 ADAMS AVE
8 Adam Pace   North Las Vegas, NV2:21:57.01 205193  613 NU VISION
9 Joshua Wiggins   Santa Monica, CA2:31:53.50 198262  893 HELENS/SBF
DNF Trevor Walton   Redlands, CADNF 152585  933 PASS PT
DNF Eric Parks   Mission Viejo, CADNF 170495  493 SHO-AIR/RO

Men - EX - Senior - 19-24

 Place Points NameCity, StateTime USAC #BibTeam
1 David Williams   Gig Harbor, WA1:45:55.64 125342  964 
2 Patrick Means   Corvallis Or1:49:32.36 211172  749 WWU CYCLIN
3 Alan Villa   Chula Vista, CA1:59:30.32 200750  567 ZUMWALTS B
4 John Parson   Covington, LA2:02:50.62 236117  737 TRISPORT
5 John McDermott   Saint Paul, MN2:18:52.52 223017  490 GATEWAY CY

Men - EX - Senior - 25-29

 Place Points NameCity, StateTime USAC #BibTeam
1 Robert Bender   Redlands, CA1:46:21.00 226872  947 DONS BIKES
2 Ely Woody   Apple Valley, CA1:46:55.59 99090  991 VICTORVILL
3 CAM WINN   1:47:38.10  438 
4 Aaron Elwell   Topeka, KS1:47:53.70 115327  514 CAPPS/REBO
5 Ryan Clark   Laguna Hills, CA1:48:11.03 242802  593 CYNERGY/RK
6 JOHN WADDELL   1:48:57.78  562 
7 Tom Mazaitis   Mammoth Lakes, CA1:51:19.42 217968  624 MAMMOTH SP
8 Brian Wilmot   San Dimas, CA1:54:13.09 189903  881 TEAM DARE
9 Nicholas Dale   Athens1:55:56.37 142769  456 THE HUB/TE
10 John Barbachano   Edwards, CA1:58:15.91 220288  924 BLOCK/SO C
11 Zack Heim   Tempe, AZ1:59:08.19 195290  583 SAN TAN RA
12 Tomas Petricko   Encinitas, CA2:02:12.04 165580  618 MAFIA RACI
13 Ara Movsessian   Glendale, CA2:08:03.93 210630  984 BACKBONE

Men - EX - Master - 30-34

 Place Points NameCity, StateTime USAC #BibTeam
1 Chris Brown   Sebastopol, CA1:51:56.76 196943  969 NORCAL VEL
2 Brant Hatton   Huntington Beach, CA1:53:18.77 110743  793 24 HR FITN
3 Josh Smith   Modjeska, CA1:53:31.41 218123  714 SHOR-AIRRO
4 Stuart Gonzalez   Riverside, CA1:54:32.53 181200  510 INTENSE CY
5 Andrew Rigel   Seattle, WA1:54:50.45 77337  572 ELLSWORTH
6 Eric Nelson   Wrightwood, CA1:57:37.89 229290  806 TEAM POSSA
6 Daniel Perez   Corona, CA1:55:12.40 238167  908 JENSON USA
7 DANNY MCNAUGHTON   1:58:12.61  495 
7 Eric Nelson   Wrightwood, CA1:57:37.89 229290  806 TEAM POSSA
8 Robert Snyder   San Juan Capistrano, CA2:00:29.00 129745  949 BACKBONE R
8 DANNY MCNAUGHTON   1:58:12.61  495 
9 Ray Storm   Corte Madera, CA2:01:49.44 200468  926 ROARING MO
9 Robert Snyder   San Juan Capistrano, CA2:00:29.00 129745  949 BACKBONE R
10 Chad Elmer   Hesperia, CA2:02:00.12 218082  592 BEAR VALLE
10 Ray Storm   Corte Madera, CA2:01:49.44 200468  926 ROARING MO
11 Timothy Pickett   Ontario, CA2:03:23.00 82079  942 JENSEN USA
11 Chad Elmer   Hesperia, CA2:02:00.12 218082  592 BEAR VALLE
12 Adam Hart   Redlands, CA2:04:17.21 218850  634 TEAM POSSA
12 Timothy Pickett   Ontario, CA2:03:23.00 82079  942 JENSEN USA
13 Scott Cugno   Boca Raton 2:08:54.75 154900  943 PMF1.NET/P
13 Adam Hart   Redlands, CA2:04:17.21 218850  634 TEAM POSSA
14 Charles Hamm   Oxnard, CA2:14:20.92 14837  636 THE HAMM T
14 Scott Cugno   Boca Raton 2:08:54.75 154900  943 PMF1.NET/P
15 Charles Hamm   Oxnard, CA2:14:20.92 14837  636 THE HAMM T
DNF Jermaine Brown   Santa Barbara, CADNF 239357  990 VELO PRO
DNF Brandon Bittorf   Ventura, CADNF 112152  975 EVOMO
DNF Daniel Perez   Corona, CADNF 238167  908 JENSON USA

Men - EX - Master - 35-39

 Place Points NameCity, StateTime USAC #BibTeam
1 Chuck Ross   Auburn, CA1:46:47.44 30625  443 SIERRA EXP
2 Todd Booth   Santa Barbara, CA1:47:17.33 4249  551 PLATINUM P
3 Don Anderson   Liberty Lake, WA1:53:04.59 41183  957 
4 Tom Sharp   San Carlos, CA1:53:15.54 224912  408 CONTENTWOR
5 Estevan Sanchez   Flagstaff, AZ1:53:16.40 152919  871 SCHAMPA
6 Rusty Sena   Los Angeles, CA1:53:48.40 189581  573 HELENS CYC
7 Scott Marcoe   San Clemente, CA1:55:09.31 98229  579 
8 Bradley Newby   Saint George, UT1:59:38.66 195141  412 
9 Chris Marsiguerra   Seaside, CA2:01:36.38 144195  958 JOESLYN'S
10 David Reid   Laguna Hills, CA2:02:27.03 260171  987 TEAM GEO L
11 Craig Kokesh   Sjc, CA2:03:14.17 254076  585 LADERA CYC
12 JEFF DOTTERWICH   2:06:31.48  981 HELENS/SUB
13 Michael Hecker   Santa Ynez, CA2:23:19.85 48971  666 FIRESTONE
DNF Fabrice Gallez   San Jose, CADNF 207258  961 VELOBUM
DNF Dustin Luton   Pasadena, CADNF 222631  578 COATES CYC
DNF MICHAEL HERNANDEZ   DNF  614 GSR BIKES

Men - EX - Master - 40-44

 Place Points NameCity, StateTime USAC #BibTeam
1 Glenn Stanton   Rancho Mirage, CA1:45:32.65 33835  897 VELO BUMS
2 Mike Hileman   Las Vegas, NV1:46:22.58 162082  668 NU VISION
3 Tim Butler   Portland, OR1:50:06.98 211505  539 RIVER CITY
4 John Mundelius   Alamo, CA1:50:09.40 131006  571 PEGASUS/C4
5 Rich Bartlett   Lancaster, CA1:52:08.99 2783  783 BLOCK
6 Doug Urbach   West Lake Village, CA1:54:29.80 36238  601 PLATINUM
7 Robert Kmetz   Rancho Santa Margarita, CA1:56:59.25 19419  556 VELOSPORT/
8 Peter Sutherland   Big Bear Lake, CA1:57:18.87 84528  977 BV BIKES
9 Erik Trogden   Vista, CA1:59:20.22 229275  474 TEAM HUFFY
10 Brian Teed   Prescott, AZ1:59:48.28 131041  929 
11 William Mosher   Beverly Hills, CA2:01:16.78 53858  979 AFP/VELOSP
12 Chris De Frates   Crested Butte, CO2:02:17.19 156114  559 DEAN GRASS
13 Dale Niemi   Coto De Caza, CA2:02:39.28 205689  569 VELO SPORT
14 Adan Guzman   Lawndale, CA2:02:47.17 14489  511 HELENS SUB
15 Richard O'Bryan   Fontana, CA2:03:02.67 26401  878 SO CAL CYC
16 art escamilla   Fontana, CA2:03:40.46 259176  963 TEAM POSSA
17 G Todd Park   Madison, SD2:03:41.70 205620  726 ADDICTIVE
18 Andrew Osburn   Santa Barbara, CA2:04:50.47 109601  988 PLATINUM P
19 David Roth   Boulder, CO2:07:55.27 30683  480 HELENS/FIS
DNF Bill Scott   Orange, CADNF 226977  906 SHO-AIR/RO
DNF James Nyysti   Prescott, AZDNF 166149  619 SWISS AMER
DNF Johannes van der Linden   Murrieta, CADNF 209200  763 IE BIKES
DNF MARC LUNDGREN   DNF  497 AFP/VELO S

Men - EX - Master - 45-49

 Place Points NameCity, StateTime USAC #BibTeam
1 Johnny O'Mara   Laguna Niguel, CA1:43:31.39 50872  411 SHO-AIR/RO
2 Dermot Carroll   Newbury Park, CA1:49:57.81 6277  652 AMGEN
3 Steven Meyer   Breckenridge, CO1:51:47.19 83402  691 ELLSWORTH/
4 Michael Laub   Enola, PA1:53:24.53 230122  501 MOUNTAINSI
5 Robert Winston   Carlsbad, CA2:02:48.28 137225  401 MORGAN STA
6 David Stowell   San Diego, CA2:03:56.90 170651  976 CAL COAST/
7 Ralph Bonnin   Orange, CA2:04:45.36 127264  870 ODI-SOUTHR
8 Mark Wille   Flagstaff, AZ2:08:25.00 196295  436 RED ROCK R
9 Eric Riel   San Francisco, CA2:08:34.96 156409  445 KLUNKER.CO
DNF Manny Ortiz   Waddell, AZDNF 230172  553 SWISS AMER

Men - EX - Master - 50-54

 Place Points NameCity, StateTime USAC #BibTeam
1 Keith Ketterer   Camarillo, CA1:50:04.79 48434  628 AMGEGN/GIA
2 Michael Hines   Escondido, CA1:52:03.25 125061  994 RANCHOS
3 Randy Liechty   San Diego, CA1:55:37.70 89462  631 BIKE EMPIR
4 Dana Harrison   Sandy, UT1:58:42.68 53980  419 REVOLUTION
5 Eddie Morris   Newbury Park, CA2:03:48.35 49080  972 AMGEN CYCL
6 Paul Zarubin   Truckee, CA2:06:53.67 196952  566 MT LINCOLN
7 Garner Palenske   San Diego, CA2:12:47.64 27102  621 CAL COAST
DNF William (Bill) Kissell   Covina, CADNF 19281  833 

Men - EX - Master - 55-59

 Place Points NameCity, StateTime USAC #BibTeam
1 Jon Miller   Newbury Park, CA2:08:18.75 167489  974 AMGEN CYCL
2 Eric Storm   Apple Valley, CA2:16:59.91 82406  555 
3 Kevin Weitz   San Rafael, CA2:18:29.19 206206  470 
4 Stephen Hughes   Scottsdale, AZ2:21:14.96 141111  757 PROCON CYC
5 BILL PETERSON   2:22:19.78  689 REVOLUTION
DNF David McElwaine   Canton, MADNF 97574  491 
DNF Richard Manzella   Santa Monica, CADNF 245515  626 HELENS SUB

Men - EX - Master - 60-64

 Place Points NameCity, StateTime USAC #BibTeam
1 Bob Blatner   Brentwood, CA1:25:00.60 128181  544 BIKES4LIFE
2 Jim Simons   Bozeman, MT2:11:21.86 174588  407 
DNF STAN FORD   DNF  552 BACK ALLEY

Men - EX - Master - 65-99

 Place Points NameCity, StateTime USAC #BibTeam
1 Terry Dahl   Santa Barbara, CA1:40:34.80 189437  591 PLATINUM P
2 Jurgen Leiser   Colorado Spgs, CO1:46:05.18 20844  414 
3 Frederic Schmid   Waco, TX1:54:09.06 109257  736 360 CYCLE
DNF James Van Manen   Ventura, CADNF 36453  549 BICYCLES O

Men - Pro - Senior

 Place Points NameCity, StateTime USAC #BibTeam
1 GEOFF KABUSH   2:02:40.75  TEAM MAXXI
2 Jeremy Horgan-Kobelski   Boulder, CO2:02:49.38 16737  SUBARU-GAR
3 Ryan Trebon   Bend, OR2:03:04.45 136658  20 KONA
4 Todd Wells   Durango, CO2:03:13.76 83401  GT BIKES
5 Barry Wicks   Corvallis, OR2:04:48.27 134223  11 KONA
6 Adam Craig   Bend, OR2:06:09.05 94510  GIANT
7 KRIS SNEDDON   2:06:31.94  17 KONA
8 MAX PLAXTON   2:06:58.59  16 ROCKY MOUN
9 Jeremiah Bishop   Harrisonburg, VA2:07:10.39 3771  TREK/VW
10 Alan Obye   Boulder, CO2:08:51.61 117394  19 JAMIS
11 Sam Schultz   Missoula, MT2:09:12.81 164788  10 SUBARU-GAR
12 Carl Decker   Bend, OR2:10:08.92 9007  22 GIANT
13 Andy Schultz   Missoula, MT2:10:28.95 172534  51 BEAR NAKED
14 SAM JUREKOFVIC   2:11:11.01  13 U23 NATION
15 ROSS SCHNELL   2:11:46.54  TREK/VW
16 Erik Tonkin   Portland, OR2:13:01.21 35742  86 KONA/TEAM
17 BRENT MILLER   2:13:17.37  KENDA/X-FU
18 Thomas Turner   Canton, GA2:13:25.42 103410  53 BEAR NAKED
19 Troy Wells   Durango, CO2:13:50.18 112599  43 TOKYO JOES
20 NEAL KINDREE   2:14:05.13  77 KONA
21 Dana Weber   Aliso Viejo, CA2:14:09.87 126922  64 JAX BICYCL
22 Cale Redpath   Durango, CO2:14:14.47 29358  68 3D RACING
23 Cody Peterson   Bend, OR2:14:30.89 97506  31 SCOTT BICY
24 Adam Snyder   Westminster, MA2:14:57.25 122912  41 3-D RACING
25 Jeff Schalk   Frederick, MD2:15:45.57 169390  14 TREK VW- E
26 CHRIS WINN   2:17:21.15  35 GT/SRAM AU
27 Keith Hickerson   Boise, ID2:18:23.17 220167  84 TAMARACK
28 BRIAN FUENTES   2:18:44.04  28 WALTWORKS/
29 Ryan Woodall   Ocala, FL2:18:48.43 153440  82 PREMIER MO
30 Travis Livermon   Lewisville, NC2:19:36.69 161583  49 CYCLING SP
31 Timothy Olson   Chico, CA2:20:13.52 153947  80 TREK/VW
32 Charles Jenkins   Ridgecrest, CA2:20:41.08 17736  55 IE BIKES R
33 RODDI LEGA   2:20:48.38  39 UNITED CYC
34 Nicholas Martin   Boulder, CO2:21:00.73 140177  15 TREK/VW
35 Bryan Fawley   Denton, TX2:21:22.61 198394  71 KENDA/X-FU
36 Michael Lee   Mission Viejo, CA2:22:10.78 42231  45 TREK/VW WE
37 Sean Donovan   Foothill Ranch, CA2:22:17.27 186481  73 CYTOMAX/KH
38 JEFF HALL   2:23:27.55  SALSA CYCL
39 Mitchell Peterson   Salt Lake City, UT2:23:36.36 192669  62 DEVO
40 Charles Pendry   Raleigh, NC2:24:04.38 106096  81 INLAND - B
41 Chance Noble   Camarillo, CA2:24:47.22 183803  67 CAL GIANT/
42 MIGUEL VALADEZ ORTIZ   2:25:06.67  85 
43 TRISTAN UHL   2:25:45.79  63 TEAM HOTEL
44 Bruce Muhlfeld   Calabasas, CA2:25:46.14 68445  56 TREK-VW
45 Kenny Burt   Auburn, CA2:25:48.73 89186  46 MOTIONBASE
46 Eric Ransom   Richmond, VA2:26:08.07 150928  32 TEAM TAMAR
47 KEVIN SMALLMAN   2:26:31.39  50 BEAR NAKED
48 TAD ELLIOTT   2:26:49.76  37 U23 NATION
49 Colin Cares   Boulder, CO2:26:50.09 216528  36 U23 NATION
50 Rick Wetherald   Logan, UT2:28:23.74 188971  25 TAMARACK R
51 NICHOLAS STEVENS   2:28:39.53  34 ORBEA USA
52 Scott Keller   Sedona, AZ2:30:10.21 125723  58 SCHAMPA/JA
53 Brig Brandt   Bend, OR2:31:30.94 41809  79 BEND ELITE
54 Michael Raney   Santa Fe, NM2:32:14.67 175669  75 VOO-DOO
55 Dustin Wanstrath   Durango, CO2:33:37.39 190121  42 TEAM TAMAR
56 KEVIN BRADFORD PARISH   2:35:54.35  21 BICYCLE BU
57 McConnell Franklin   Taos2:36:14.46 215111  27 DEVO
58 Yuki Saito   Denver, COPULLED 208187  24 FUENTES DE
59 Steven Kinney   Big Bear Lake, CAPULLED 19216  52 STEVEN K S
60 Eric Neat   Flagstaff, AZPULLED 127889  57 DEFT CYCLI
61 Paul Hanson   St Peter, MNPULLED 118046  70 BEAR NAKED
62 Travis (TJ) Woodruff   Prescott, AZPULLED 135975  44 MOMENTUMEN
63 Christian Ball   Frisco, COPULLED 122835  76 YETI CYCLE
DNF Leonardo Sandoval   Clearwater, FLDNF 107620  54 SOCAL SPEC
DNF Tim Bolton   Tucson, AZDNF 117086  61 TITUS CYCL
DNF Cameron Brenneman   Santa Fe, NMDNF 4755  60 STEVEN K S
DNF MATHIEU TOULOUSE   DNF  66 TEAM MAXXI
DNF Bear Perrin   Grants Pass, ORDNF 104126  83 CAPITOLSUB
DNF Michael Andres   Durango, CODNF 189954  59 TREK VW
DNF SEAMUS MCGRATH   DNF  48 ROCKY MOUN
DNF Noah Holcomb   Aliso Viejo, CADNF 128792  23 BEAR NAKED
DNF Chris Heinrich   Placentia, CADNF 173178  72 BICYCLE JO
DNF Paul Freiwald   Lake Forest, CADSQ 12367  74 TITUS CYCL
DNF Tristan Schouten   Plymouth, WIDNF 145071  78 TREK/VW
DNF Grant Kier   Missoula, MTDNF 19086  29 REDBARNBIC
DNF Ryan Lynch   Boulder, CODNF 164962  30 JAMES FRAM
DNF AREN KIMMEL   DNF  69 
DNF Brett Morgan   Yarmouth, MEDNF 150197  40 BEAR NAKED
DNF Kyle Wideman   San Luis Obispo, CADNF 211640  89 WTB/FOX SH

Women - EX - Senior - 19-29

 Place Points NameCity, StateTime USAC #BibTeam
1 Joy Duerksen   Yucaipa, CA2:18:49.15 218863  646 TEAM JOSE
2 Sarah Kaufmann   Park City, UT2:20:00.00 204404  502 ROARING MO
3 Renee Ridgley   Cool, CA2:21:34.84 247654  852 VELO BELLA
4 Emma Worldpeace   Redway, CA2:23:13.62 206653  886 LOST COAST
5 Vanessa Humic   Long Beach, CA2:24:32.25 250250  633 BACKBONE A
6 Lindsey Bishop   Boulder, CO2:28:22.92 198013  598 TEAM BULLD
7 Heidi Kanayan   Mammoth Lakes, CA2:36:32.64 214650  630 FOX RACING
DNF Maureen Kunz   Oakland, CADNF 206973  450 VANDERKITT

Women - EX - Master - 30-39

 Place Points NameCity, StateTime USAC #BibTeam
1 Pamela Dobrowolski   Boulder, CO2:30:54.33 172235  454 
2 Dawn Lyons   Long Beach, CA2:56:57.72 177194  978 BACKBONE R
DNF Jill Grasky   Tucson, AZDNF 236576  669 HAMMER NUT

Women - EX - Master - 40-49

 Place Points NameCity, StateTime USAC #BibTeam
1 Beverly Chaney   Carmel, CA1:32:07.32 221127  428 ROARING MO
2 Tanya Woody   San Antonio, TX1:50:35.65 236072  768 TEAM ORTHO

Women - EX - Master - 50-99

 Place Points NameCity, StateTime USAC #BibTeam
1 Deborah Martin-Wille   Flagstaff, AZ1:47:21.63 196287  496 RED ROCK R

Women - Pro - Senior

 Place Points NameCity, StateTime USAC #BibTeam
1 Georgia Gould   Fort Collins, CO1:44:29.30 183192  LUNA WOMEN
2 KATERINA NASH   1:47:10.69  LUNA WOMEN
3 Willow Koerber   Durango, CO1:48:23.12 77103  SUBARU-GAR
4 Shonny Vanlandingham   Captain Cook, HI1:48:52.96 89955  LUNA WOMEN
5 Susan Haywood   Davis, WV1:49:20.75 117585  TREK/VW
6 ALISON SYDOR   1:50:34.90  49 ROCKY MTN
7 CATHERINE PENDREL   1:50:57.16  19 NORCO
8 Jamie Whitmore   Mount Aukum, CA1:51:27.01 169611  53 CANNONDALE
9 WENDY SIMMS   1:52:15.70  58 KONA
10 Heather Irmiger   Boulder, CO1:52:51.69 109232  SUBARU-GAR
11 Katherine Compton   Colorado Springs, CO1:53:04.28 55820  59 SPIKE SHOO
12 Zephanie Blasi   Vail, AZ1:54:23.51 156031  12 KENDA/X-FU
13 Kelli Emmett   Plymouth Mi1:55:00.11 156146  15 GIANT
14 Jenna Zander   Mankato, MN1:55:05.30 160568  16 BEAR NAKED
15 DELLYS STARR   1:55:56.39  30 BMC/SPORTS
16 LEA DAVISON   1:55:58.74  62 TREK/VW
17 Susan Butler   Portland, OR1:56:38.94 211472  38 BEAR NAKED
18 JENNIFER SMITH   1:56:44.73  61 TREK/VW
19 Kathy Sherwin   Heber City, UT1:56:45.17 173633  TITUS
20 PATRICIA SINCLAIR   1:59:11.53  43 SCOTT USA/
21 Chloe Forsman   Tucson, AZ1:59:13.68 214920  11 LUNA WOMEN
22 Nina Baum   Albuquerque, NM2:01:06.57 180986  13 BEAR NAKED
23 Jennifer Gersbach   Durango, CO2:01:11.75 191239  56 BMC/SPORTS
24 Melissa Thomas   Boulder, CO2:01:44.30 169126  27 TOKYO JOES
25 Judy Freeman   Littleton Co2:03:06.62 182719  33 
26 Chrissy Bono   San Diego, CA2:04:11.70 217983  31 INTENSE CY
27 Melanie Meyers   Flagstaff, AZ2:04:53.27 196731  41 KENDA/TITU
28 Kristin Danielson   Albuquerque, NM2:04:58.48 164978  10 VELO BELLA
29 CARLA SALGADO   2:05:58.27  51 TREK-NL
30 Shannon Gibson   Durango, CO2:06:28.85 156279  18 VELO-BELLA
31 Heather Holmes   Atlanta, GA2:08:02.22 222022  35 KENDA/X-FU
32 Emily Van Meter   Portland, OR2:08:58.14 211547  26 BEAR NAKED
33 Megan Monroe   Boulder, CO2:09:18.48 178944  55 BMC-SPORTS
34 Sarah Barber   Boise, ID2:09:26.95 139667  46 TITUS/KEND
35 Krista Park   Madison, SD2:09:27.96 203842  50 COLAVITA
36 Stacey Scanlan   Boise, ID2:09:36.82 199731  65 TEAM TAMAR
37 Kristina Maier   Evergreen, CO2:10:06.75 152326  44 BMC/SPORTS
38 Theresa Richardson   Davidsonville, MD2:11:41.20 170227  25 BEAR NAKED
39 Christie Pleiss   Redlands, CA2:11:41.55 186916  40 PASS PT/GA
40 Jennifer Sica   Flagstaff, AZ2:12:14.83 172806  42 DEFT CYCLI
41 Kyia Malenkovich   Saint Cloud, MN2:12:37.65 130424  37 HEADMETHOD
42 Barbara Howe   Berkeley, CA2:13:46.05 129067  22 VELO BELLA
43 Kimberly Flynn   Greensboro, NC2:13:57.03 122752  32 VANTAGGIO/
44 Patricia Buerkle   Philadelphia, PA2:14:06.76 131990  64 TAHOE NORT
45 JAMIE DINKINS   2:15:16.41  57 VANTAGGIO/
46 Mandy Eakins   Newport Beach, CA2:16:39.11 147490  52 PASS PHYSI
47 Erika Krumpelman   Hayden, ID2:17:43.52 179685  24 VELO BELLA
48 Sonya Looney   Kelowna2:19:33.88 205174  29 TOUGH GIRL
49 Sabina Kraushaar   Durango, CO2:21:26.81 198738  23 HEALTHFX
50 Rebecca Gross   Golden, CO2:21:52.81 176014  34 VELO BELLA
51 Jana Repulski   Boise, ID2:24:33.97 150760  36 TEAM TAMAR
52 Rachel Throop   Costa Mesa, CA2:26:45.80 174132  60 DEVO
53 Kathy Bodie   Boulder, CO2:30:24.30 173449  47 GREAT ADVE
DNF Alexandria Fabbro   Altadena, CADNF 56090  39 VELO BELLA
DNF CHRISTY LOVE   DNF  28 SCOTT BIKE
DNF MARY-ELLEN ASH   DNF  45 EASTON/SPE
DNF Sara Bresnick-Zocchi   Arlington, MADNF 166426  54 LYNSKEY PE
DNF Jennifer Tilley   Carbondale, CODNF 166006  63 VELO BELLA
DNF HEATHER RANDA   DNF  48 INTENSE CY

Women - Junior - JR - 1-18

 Place Points NameCity, StateTime USAC #BibTeam
1 Essence Barton   Thousand Oak, CA2:11:28.83 179924  527 DEVO/NFO
2 Deidre York   Boulder, CO2:11:45.13 178289  464 VELOBUM.CO
3 Amy Cox   Scottsdale, AZ2:16:46.51 225322  457 STRADA

Report missing or incorrect license numbers

Volkswagen
USACDFShimanoBonk BreakerOSMOSpyCUORESierra Nevada
UCI USA Cycling is the official governing body for all disciplines of competitive cycling in the United States. The 501c3, membership-based organization aims both to achieve sustained success in international cycling competition and to grow competitive cycling in America while delivering an exceptional customer experience.
View Children's Online Privacy Protection Policy
US Olympic Committee